Weather History for KGMU - January, 2013

Change the Weather History Date:

Wednesday, January 9, 2013

  Actual Average Record
Temperature  
Mean Temperature 56 °F -  
Max Temperature 64 °F 51 °F 72 °F (2008)
Min Temperature 48 °F 33 °F 18 °F (2011)
Degree Days  
Heating Degree Days 9    
Growing Degree Days 6 (Base 50)    
Moisture  
Dew Point 46 °F    
Average Humidity 68    
Maximum Humidity 81    
Minimum Humidity 58    
Precipitation  
Precipitation 0.00 in - - ()
Sea Level Pressure  
Sea Level Pressure 30.41 in    
Wind  
Wind Speed 2 mph (North)    
Max Wind Speed 7 mph    
Max Gust Speed -    
Visibility 10 miles    
Events      
Averages and records for this station are not official NWS values.
T = Trace of Precipitation, MM = Missing Value Source: NWS Daily Summary

Daily Weather History Graph

Daily Weather History Graph

Search for Another Location

Airport or City:

Trip Planner

Search our weather history database for the weather conditions in past years. The results will help you decide how hot, cold, wet, or windy it might be!

Date:

Astronomy

Jan. 09, 2013 Rise Set
Actual Time 7:37 AM EST 5:36 PM EST
Civil Twilight 7:09 AM EST 6:03 PM EST
Nautical Twilight 6:38 AM EST 6:35 PM EST
Astronomical Twilight 6:07 AM EST 7:05 PM EST
Moon 5:15 AM EST (1/9) 3:36 PM EST (1/9)
Length of Visible Light 10h 53m
Length of Day
9h 58m
Waning Crescent, 6% of the Moon is Illuminated
Jan 9
Waning Crescent
Jan 11
New
Jan 18
First Quarter
Jan 26
Full
Feb 3
Last Quarter

Hourly Weather History & Observations

Time (EST) Temp. Dew Point Humidity Pressure Visibility Wind Dir Wind Speed Gust Speed Precip Events Conditions
12:53 AM 48.9 °F 37.9 °F 66% 30.40 in 10.0 mi North 5.8 mph - N/A   Overcast
1:53 AM 48.9 °F 37.9 °F 66% 30.40 in 10.0 mi North 6.9 mph - N/A   Overcast
3:53 AM 50.0 °F 39.0 °F 66% 30.39 in 10.0 mi North 3.5 mph - N/A   Overcast
4:53 AM 51.1 °F 39.9 °F 66% 30.39 in 10.0 mi Calm Calm - N/A   Overcast
5:53 AM 51.1 °F 41.0 °F 68% 30.39 in 10.0 mi Calm Calm - N/A   Overcast
6:53 AM 51.1 °F 41.0 °F 68% 30.40 in 10.0 mi Calm Calm - N/A   Overcast
7:53 AM 52.0 °F 42.1 °F 69% 30.42 in 10.0 mi Calm Calm - N/A   Overcast
8:18 AM 51.8 °F 42.8 °F 71% 30.42 in 10.0 mi Calm Calm - N/A   Overcast
8:27 AM 53.6 °F 42.8 °F 67% 30.43 in 10.0 mi Calm Calm - N/A   Overcast
8:53 AM 53.1 °F 43.0 °F 69% 30.45 in 10.0 mi Calm Calm - N/A   Overcast
11:53 AM 64.0 °F 48.9 °F 58% 30.43 in 10.0 mi Variable 5.8 mph - N/A   Clear
12:53 PM 64.0 °F 48.9 °F 58% 30.40 in 10.0 mi Calm Calm - N/A   Clear
1:53 PM 64.0 °F 48.9 °F 58% 30.38 in 10.0 mi Calm Calm - N/A   Clear
2:53 PM 63.0 °F 50.0 °F 63% 30.39 in 10.0 mi Calm Calm - N/A   Clear
3:53 PM 64.0 °F 51.1 °F 63% 30.38 in 10.0 mi Calm Calm - N/A   Mostly Cloudy
4:53 PM 63.0 °F 51.1 °F 65% 30.39 in 10.0 mi Calm Calm - N/A   Clear
5:53 PM 61.0 °F 51.1 °F 70% 30.40 in 10.0 mi Calm Calm - N/A   Clear
6:53 PM 59.0 °F 51.1 °F 75% 30.41 in 10.0 mi South 3.5 mph - N/A   Clear
7:53 PM 59.0 °F 51.1 °F 75% 30.39 in 10.0 mi Calm Calm - N/A   Partly Cloudy
8:53 PM 59.0 °F 50.0 °F 72% 30.40 in 10.0 mi Calm Calm - N/A   Clear
9:53 PM 57.9 °F 50.0 °F 75% 30.42 in 10.0 mi North 5.8 mph - N/A   Partly Cloudy
10:53 PM 57.0 °F 51.1 °F 81% 30.44 in 10.0 mi Calm Calm - N/A   Clear
11:53 PM 55.9 °F 50.0 °F 80% 30.44 in 10.0 mi Calm Calm - N/A   Clear